Regional Weather Roundup
Issued by NWS Albany, NY

Home | Current Version | Previous Version | Text Only | Print | Product List | Glossary On
Versions: 1 2 3 4 5 6 7 8 9 10 11 12 13 14 15 16 17 18 19 20 21 22 23 24 25 26 27 28 29 30 31 32 33 34 35 36 37 38 39 40 41 42 43 44 45 46 47 48 49 50
501
ASUS41 KALY 081810
RWRALY

NEW YORK STATE HOURLY WEATHER ROUNDUP
NATIONAL WEATHER SERVICE ALBANY NY
100 PM EST MON FEB 08 2016

NOTE: "FAIR" INDICATES FEW OR NO CLOUDS BELOW 12,000 FEET WITH NO
SIGNIFICANT WEATHER AND/OR NO OBSTRUCTIONS TO VISIBILITY.

NYZ032-033-038>043-046>054-057>066-NYZ062>081-081900-
EAST


CITY           SKY/WX    TMP DP  RH WIND       PRES   REMARKS
ALBANY         CLOUDY    36   3  25 N9        29.82F WCI  29
GLENS FALLS    CLOUDY    32   5  32 NE12      29.83F WCI  23
POUGHKEEPSIE   CLOUDY    32  19  58 NE7       29.77F WCI  26
NEWBURGH       PTSUNNY   34  14  44 E12G17    29.77F WCI  25
MONTGOMERY     CLOUDY    35  11  36 N13       29.75F WCI  26
WHITE PLAINS   LGT SNOW  28  23  80 N13G21    29.73F VSB 1   WCI  18
ISLIP          LGT SNOW  27  23  85 N21G32    29.70F VSB 1   WCI  13
NEW YORK CITY  CLOUDY    32  24  72 N16       29.75F WCI  21
CENTRAL PARK   CLOUDY    32  24  72 NE10G23   29.77F WCI  24
$$

NYZ005>009-017-018-044>046-055-056-081900-
CENTRAL


CITY           SKY/WX    TMP DP  RH WIND       PRES   REMARKS
FULTON         PTSUNNY   39  23  52 E9G18     29.71F WCI  33
SYRACUSE       CLOUDY    40  23  50 E13       29.71F WCI  32
ROME           MOSUNNY   36  16  44 SE18G24   29.77F WCI  26
ELMIRA         CLOUDY    39  24  55 SE9       29.67F WCI  33
BINGHAMTON     CLOUDY    37  22  54 SE10      29.66F WCI  30
MONTICELLO     MOSUNNY   34  10  37 SE9       29.71F WCI  26
$$

NYZ026>034-041>043-081900-
NORTH


CITY           SKY/WX    TMP DP  RH WIND       PRES   REMARKS
WATERTOWN      CLOUDY    34  22  61 NE12      29.75F WCI  25
FORT DRUM      NOT AVBL
MASSENA        CLOUDY    22   9  57 NE21      29.89F WCI   6
SARANAC LAKE   FLURRIES  29  18  63 E7        29.71F WCI  22
PLATTSBURGH    CLOUDY    25   8  48 N13       29.88F WCI  14
$$

NYZ001>004-010>016-019>021-081900-
WEST


CITY           SKY/WX    TMP DP  RH WIND       PRES   REMARKS
NIAGARA FALLS  CLOUDY    48  27  44 SE5       29.59F
BUFFALO        CLOUDY    49  27  42 SE8       29.59F
DUNKIRK        CLOUDY    45  28  51 SE10      29.59F
JAMESTOWN      CLOUDY    41  23  48 S10       29.56F
WELLSVILLE     MOSUNNY   40  21  46 SE13      29.60F WCI  32
ROCHESTER      CLOUDY    42  24  49 SE12      29.66F
PENN YAN       CLOUDY    39  23  52 SE9       29.67F WCI  33
$$

             KEY
       WCI = WIND CHILL INDEX
       VSB = VISIBILITY
       HX  = HEAT INDEX
$$




USA.gov is the U.S. government's official web portal to all federal, state and local government web resources and services.